Regional Weather Roundup
Issued by NWS

Home | Current Version | Previous Version | Graphics & Text | Print | Product List | Glossary On
Versions: 1 2 3 4 5 6 7 8 9 10 11 12 13 14 15 16 17 18 19 20 21 22 23 24 25 26 27
000
ASUS45 KBOU 171110
RWRCO

WEATHER ROUNDUP FOR COLORADO
NATIONAL WEATHER SERVICE DENVER/BOULDER CO
400 AM MST FRI NOV 17 2017

NOTE: "FAIR" INDICATES FEW OR NO CLOUDS BELOW 12000 FEET WITH NO
SIGNIFICANT WEATHER AND/OR OBSTRUCTIONS TO VISIBILITY.

COZ001>005-013-030-031-171200-
...NORTHWEST COLORADO...

CITY           SKY/WX    TMP DP  RH WIND       PRES   REMARKS
CRAIG          FAIR      53  26  35 SW29G38   29.72F
HAYDEN         MOCLDY    52  27  38 SW22G30   29.75S
MEEKER         CLOUDY    54  26  34 SW26G37   29.77F
RABBIT EARS PA CLOUDY    34  27  75 W13G29    29.86F WCI  25
STEAMBOAT SPGS CLOUDY    51  27  38 SW16G22   29.76S
WALDEN         CLOUDY    45  23  42 SW23G32   29.78F
$$

COZ006>008-011-171200-
...WEST CENTRAL VALLEYS...

CITY           SKY/WX    TMP DP  RH WIND       PRES   REMARKS
GRAND JUNCTION FAIR      56  27  32 SE6       29.79F
MONTROSE       FAIR      54  33  45 S20       29.90F
EAGLE          CLOUDY    54  26  34 W17       29.82F
RIFLE          FAIR      53  27  36 NW3       29.79F
DELTA          CLOUDY    59  28  30 S5        29.86R
NUCLA          MOCLDY    57  28  33 SW15G28   29.95S
$$

COZ017>023-064>068-171200-
...SOUTHWEST COLORADO...

CITY           SKY/WX    TMP DP  RH WIND       PRES   REMARKS
DURANGO        MOCLDY    44  26  49 CALM      30.04F
CORTEZ         MOCLDY    52  26  36 VRB3      30.02S
PAGOSA SPRINGS LGT RAIN  47  30  50 SW3       30.09S
TELLURIDE      CLOUDY    47  26  45 SW16G32   30.08S
WOLF CREEK PAS HVY SNOW  27  27 100 SW31      30.16F VSB<1/4 WCI  10
$$

COZ009-010-012-014-032>034-037-058>063-171200-
...CENTRAL COLORADO...

CITY           SKY/WX    TMP DP  RH WIND       PRES   REMARKS
ASPEN          MOCLDY    44  33  65 VRB5G23   29.87F
BUENA VISTA    RAIN      43  35  72 E6        29.92F
COPPER MTN     LGT SNOW  34  28  80 MISG      30.00F
BERTHOUD PASS  LGT SNOW  27  14  59 W39G55    29.93F WCI   8
COTTONWOOD PAS LGT SNOW  41  36  81 SW12G17   29.96F
GUNNISON       LGT RAIN  48  31  51 W25G32    29.94F
KREMMLING      CLOUDY    54  23  30 W16G22    29.81S
LEADVILLE      CLOUDY    34  28  79 NE7       29.93F WCI  28
MONARCH PASS   CLOUDY    28  28 100 W49G69    30.10F WCI   9
SALIDA         CLOUDY    47  37  68 W10G21    30.01R
SUNLIGHT       MOCLDY    34  21  60 SW21G43   29.95F WCI  22
WILKERSON PASS FAIR      30  28  93 SW18G33   29.99F WCI  18
$$

COZ069>075-171200-
...SAN LUIS VALLEY/SANGRE DE CRISTO MOUNTAINS...

CITY           SKY/WX    TMP DP  RH WIND       PRES   REMARKS
ALAMOSA        FAIR      39  32  76 S13       30.02R
DEL NORTE      FAIR      44  30  58 SW30G39   29.99F
LA VETA PASS   FAIR      34  30  86 S26G46      N/A  WCI  21
SAGUACHE       FAIR      39  28  65 E13       29.95F
$$

COZ035-036-038>040-171200-
...NORTHERN COLORADO FRONT RANGE...

CITY           SKY/WX    TMP DP  RH WIND       PRES   REMARKS
DENVER INTL AP FAIR      57  25  29 SW18      29.67S
DMNS CITY PARK   N/A     56  24  29 W6        29.70S
AURORA         PTCLDY    58  25  28 SW20      29.70F
FRONT RANGE AP FAIR      57  27  31 SW16G23   29.69S
ERIE MUNI ARPT FAIR      59  26  27 SW13G18   29.72F
BOULDER MUN AP FAIR      57  28  33 SW5       29.66F
CENTENNIAL     FAIR      56  27  32 SW16G24   29.72F
BROOMFIELD     FAIR      57  28  33 SW16G22   29.71F
FORT COLLINS   FAIR      56  28  34 W13       29.64F
LONGMONT       FAIR      43  31  61 NW5       29.68S
$$

COZ041-046-047-076>085-087-088-171200-
...PIKES PEAK/PALMER DIVIDE AND SOUTHERN FOOTHILLS...

CITY           SKY/WX    TMP DP  RH WIND       PRES   REMARKS
COLO. SPRINGS  FAIR      58  28  32 W22G31    29.81F
A. F. ACADEMY  FAIR      55  28  35 W23G40    29.80F
SCHRIEVER AFB  FAIR      55  25  31 W29       29.78S
CHEYENNE MTN   FAIR      53  25  34 S8G18     29.78S
ELLICOTT         N/A    N/A N/A N/A SW16G22   29.77F
FALCON         FAIR      52  24  34 W21G28    29.81F
FORT CARSON    FAIR      56  26  31 W15       29.79S
LIMON          FAIR      42  26  53 SE7       29.72F
MONUMENT HILL  FAIR      50  28  43 SW29G39   29.79S
CANON CITY     FAIR      50  30  46 W3        29.78F
WALSENBURG     FAIR      55  32  41 SW24G31   29.90R
TRINIDAD       FAIR      58  30  34 W18       29.83F
$$

COZ042>045-048>051-090-091-171200-
...NORTHEAST COLORADO...

CITY           SKY/WX    TMP DP  RH WIND       PRES   REMARKS
GREELEY ARPT   FAIR      56  28  34 SW3       29.64S
AKRON          FAIR      49  29  46 SW7       29.65F
BURLINGTON     FAIR      55  31  39 SW17      29.68F
WRAY           NOT AVBL
YUMA           FAIR      50  32  50 W5        29.64F
STERLING       FAIR      39  28  65 S5        29.62S
HOLYOKE        FAIR      43  32  65 SW8       29.63S
FORT MORGAN    FAIR      45  27  49 CALM      29.63F
$$

COZ086-089-092>099-171200-
...SOUTHEAST COLORADO...

CITY           SKY/WX    TMP DP  RH WIND       PRES   REMARKS
PUEBLO         FAIR      52  29  41 W9        29.74F
LA JUNTA       FAIR      55  28  35 W10       29.73F
LAMAR          FAIR      47  29  49 SW10      29.70F
SPRINGFIELD      N/A     51  28  41 W10       29.78F
$$




USA.gov is the U.S. government's official web portal to all federal, state and local government web resources and services.